Date String (YYYY-MM-DD hh:mm:ss) UTC,Instrument flags,Ambient pressure (hPa),Sample flow (lpm),Bypass flow (lpm),Sample temperature (°C),Ambient temperature (°C),ASC tube jacket temperature (°C),LED temperature (°C),Box temperature (°C),Sample RH (%),Span deviation,Mass concentration (μg/m³),Mass concentration (μg/m³),Mass concentration (μg/m³)
DateTimeUTC,F1_M11,P_M11,Q1_M11,Q2_M11,T1_M11,T2_M11,T3_M11,T4_M11,T5_M11,U1_M11,ZSPAN_M11,X0_M11,X2_M11,X1_M11
2021-12-11 06:00:00,,0822.4,4.99,0.00,21.8,22.4,00.0,30.9,23.6,05.5,0000.0,0004.13,0001.69,0001.16
2021-12-11 06:01:00,,0822.4,5.02,0.00,21.9,23.1,00.0,30.9,23.9,05.4,0000.0,0003.15,0001.73,0001.16
2021-12-11 06:02:00,,0822.5,4.99,0.00,22.0,22.8,00.0,30.9,23.9,05.5,0000.0,0003.14,0001.72,0001.17
2021-12-11 06:03:00,,0822.5,5.01,0.00,22.0,22.4,00.0,30.9,23.6,05.5,0000.0,0003.33,0001.76,0001.17
2021-12-11 06:04:00,,0822.5,5.00,0.00,21.9,22.0,00.0,30.9,23.4,05.5,0000.0,0003.50,0001.75,0001.18
2021-12-11 06:05:00,,0822.4,4.99,0.00,21.8,21.7,00.0,30.9,23.3,05.4,0000.0,0004.33,0001.75,0001.20
2021-12-11 06:06:00,,0822.5,5.00,0.00,21.8,21.4,00.0,30.9,23.2,04.9,0000.0,0004.33,0001.75,0001.21
2021-12-11 06:07:00,,0822.5,5.00,0.00,21.7,21.1,00.0,30.9,23.0,05.4,0000.0,0005.63,0001.77,0001.21
2021-12-11 06:08:00,,0822.4,5.00,0.00,21.6,20.9,00.0,30.8,22.9,05.5,0000.0,0005.96,0001.77,0001.23
2021-12-11 06:09:00,,0822.4,5.01,0.00,21.5,20.8,00.0,30.8,22.9,05.5,0000.0,0005.90,0001.75,0001.23
2021-12-11 06:10:00,,0822.6,5.00,0.00,21.6,21.4,00.0,30.8,23.1,05.6,0000.0,0005.83,0001.72,0001.22
2021-12-11 06:11:00,,0822.6,5.01,0.00,21.7,22.3,00.0,30.8,23.5,05.6,0000.0,0005.76,0001.69,0001.21
2021-12-11 06:12:00,,0822.6,4.99,0.00,21.9,23.0,00.0,30.9,23.9,05.6,0000.0,0005.76,0001.66,0001.21
2021-12-11 06:13:00,,0822.5,4.99,0.00,22.0,22.9,00.0,30.9,23.9,05.0,0000.0,0005.67,0001.64,0001.21
2021-12-11 06:14:00,,0822.5,5.01,0.00,22.0,22.5,00.0,30.9,23.7,04.9,0000.0,0005.72,0001.59,0001.19
2021-12-11 06:15:00,,0822.5,5.01,0.00,21.9,22.1,00.0,30.9,23.5,05.1,0000.0,0005.88,0001.58,0001.18
2021-12-11 06:16:00,,0822.5,5.00,0.00,21.9,21.8,00.0,30.9,23.4,05.2,0000.0,0005.41,0001.55,0001.16
2021-12-11 06:17:00,,0822.6,5.01,0.00,21.8,21.5,00.0,30.9,23.2,05.0,0000.0,0005.39,0001.56,0001.16
2021-12-11 06:18:00,,0822.6,4.99,0.00,21.7,21.2,00.0,30.9,23.1,05.0,0000.0,0004.06,0001.55,0001.15
2021-12-11 06:19:00,,0822.4,4.99,0.00,21.7,21.1,00.0,30.9,23.1,05.2,0000.0,0003.80,0001.52,0001.12
2021-12-11 06:20:00,,0822.6,5.00,0.00,21.6,21.0,00.0,30.8,23.1,05.2,0000.0,0003.78,0001.50,0001.10
2021-12-11 06:21:00,,0822.6,5.00,0.00,21.6,20.9,00.0,30.8,23.0,05.1,0000.0,0004.38,0001.50,0001.08
2021-12-11 06:22:00,,0822.5,5.00,0.00,21.6,21.3,00.0,30.8,23.2,05.2,0000.0,0004.83,0001.48,0001.08
2021-12-11 06:23:00,,0822.4,4.99,0.00,21.8,22.1,00.0,30.8,23.5,05.2,0000.0,0004.85,0001.50,0001.07
2021-12-11 06:24:00,,0822.5,5.01,0.00,21.9,22.9,00.0,30.9,23.9,05.1,0000.0,0005.73,0001.52,0001.06
2021-12-11 06:25:00,,0822.5,4.99,0.00,22.1,23.2,00.0,30.9,24.1,04.9,0000.0,0006.02,0001.52,0001.05
2021-12-11 06:26:00,,0822.5,5.01,0.00,22.1,22.8,00.0,31.0,23.9,04.9,0000.0,0005.65,0001.48,0001.04
2021-12-11 06:27:00,,0822.4,5.00,0.00,22.0,22.3,00.0,31.0,23.7,04.9,0000.0,0005.71,0001.49,0001.03
2021-12-11 06:28:00,,0822.5,5.01,0.00,21.9,22.0,00.0,30.9,23.5,04.6,0000.0,0006.74,0001.45,0001.01
2021-12-11 06:29:00,,0822.4,4.98,0.00,21.9,21.6,00.0,30.9,23.4,04.7,0000.0,0006.78,0001.43,0001.00
2021-12-11 06:30:00,,0822.5,5.00,0.00,21.8,21.3,00.0,30.9,23.2,04.9,0000.0,0007.22,0001.44,0000.98
2021-12-11 06:31:00,,0822.5,5.01,0.00,21.7,21.1,00.0,30.9,23.1,04.9,0000.0,0007.39,0001.44,0000.98
2021-12-11 06:32:00,,0822.4,4.99,0.00,21.7,21.0,00.0,30.9,23.1,04.9,0000.0,0007.01,0001.43,0000.97
2021-12-11 06:33:00,,0822.4,5.01,0.00,21.6,20.9,00.0,30.8,23.0,04.9,0000.0,0006.40,0001.41,0000.97
2021-12-11 06:34:00,,0822.4,4.99,0.00,21.6,21.1,00.0,30.8,23.1,04.9,0000.0,0007.27,0001.37,0000.96
2021-12-11 06:35:00,,0822.4,5.00,0.00,21.7,21.9,00.0,30.9,23.4,04.9,0000.0,0006.72,0001.31,0000.95
2021-12-11 06:36:00,,0822.4,5.01,0.00,21.9,22.8,00.0,30.9,23.8,04.9,0000.0,0005.84,0001.27,0000.94
2021-12-11 06:37:00,,0822.4,5.00,0.00,22.1,23.3,00.0,30.9,24.0,04.9,0000.0,0005.98,0001.29,0000.94
2021-12-11 06:38:00,,0822.4,5.00,0.00,22.1,22.9,00.0,31.0,24.0,04.8,0000.0,0005.54,0001.28,0000.93
2021-12-11 06:39:00,,0822.3,5.01,0.00,22.1,22.4,00.0,31.0,23.8,04.8,0000.0,0004.87,0001.29,0000.93
2021-12-11 06:40:00,,0822.3,4.99,0.00,22.0,22.1,00.0,31.0,23.6,04.6,0000.0,0004.62,0001.27,0000.93
2021-12-11 06:41:00,,0822.3,5.00,0.00,21.9,21.7,00.0,31.0,23.5,04.7,0000.0,0004.95,0001.24,0000.92
2021-12-11 06:42:00,,0822.2,5.01,0.00,21.9,21.5,00.0,30.9,23.4,04.9,0000.0,0006.09,0001.26,0000.92
2021-12-11 06:43:00,,0822.2,4.99,0.00,21.8,21.3,00.0,30.9,23.2,04.9,0000.0,0006.18,0001.30,0000.92
2021-12-11 06:44:00,,0822.0,5.01,0.00,21.7,21.1,00.0,30.9,23.2,04.9,0000.0,0006.28,0001.34,0000.92
2021-12-11 06:45:00,,0821.8,5.00,0.00,21.7,20.9,00.0,30.9,23.1,04.7,0000.0,0005.29,0001.36,0000.92
2021-12-11 06:46:00,,0822.1,5.01,0.00,21.6,20.9,00.0,30.9,23.0,04.7,0000.0,0005.27,0001.40,0000.93
2021-12-11 06:47:00,,0821.8,5.00,0.00,21.7,21.5,00.0,30.9,23.3,04.8,0000.0,0005.43,0001.48,0000.95
2021-12-11 06:48:00,,0822.0,5.00,0.00,21.8,22.3,00.0,30.9,23.6,04.6,0000.0,0005.53,0001.50,0000.96
2021-12-11 06:49:00,,0821.9,4.99,0.00,22.0,23.0,00.0,31.0,24.0,04.7,0000.0,0005.41,0001.54,0000.98
2021-12-11 06:50:00,,0821.8,5.01,0.00,22.1,23.2,00.0,31.0,24.1,04.7,0000.0,0004.85,0001.53,0001.00
2021-12-11 06:51:00,,0821.8,5.01,0.00,22.1,22.8,00.0,31.0,23.9,04.7,0000.0,0004.91,0001.57,0001.02
2021-12-11 06:52:00,,0821.8,4.99,0.00,22.1,22.3,00.0,31.0,23.7,04.6,0000.0,0004.66,0001.60,0001.03
2021-12-11 06:53:00,,0821.8,5.00,0.00,22.0,21.9,00.0,31.0,23.5,04.7,0000.0,0005.12,0001.58,0001.04
2021-12-11 06:54:00,,0821.8,5.01,0.00,21.9,21.5,00.0,31.0,23.4,04.8,0000.0,0005.04,0001.54,0001.05
2021-12-11 06:55:00,,0821.7,5.01,0.00,21.8,21.3,00.0,31.0,23.3,04.8,0000.0,0004.97,0001.52,0001.06
2021-12-11 06:56:00,,0821.8,4.99,0.00,21.8,21.1,00.0,30.9,23.2,04.7,0000.0,0005.06,0001.55,0001.07
2021-12-11 06:57:00,,0821.8,5.01,0.00,21.7,20.9,00.0,30.9,23.0,04.7,0000.0,0005.50,0001.56,0001.07
2021-12-11 06:58:00,,0821.7,4.99,0.00,21.6,21.1,00.0,30.9,23.1,04.9,0000.0,0005.90,0001.56,0001.06
2021-12-11 06:59:00,,0821.8,4.99,0.00,21.8,21.9,00.0,30.9,23.4,04.8,0000.0,0006.53,0001.57,0001.05
